Tracking 28888 objects as of 23-May-2024
HD Live streaming from Space Station
objects crossing your sky now

ARIANE 5 R/B

Track ARIANE 5 R/B now!


NORAD ID: 33276
Int'l Code: 2008-038C
Perigee: 247.5 km
Apogee: 32,755.1 km
Inclination: 2.1 °
Period: 573.8 minutes
Semi major axis: 22872 km
RCS: 23.7749 m2 (large)
Launch date: August 14, 2008
Source: France (FR)
Launch site: FRENCH GUIANA (FRGUI)

Note: This is a ROCKET BODY
Your satellite tracking list
Your tracking list is empty




NASA's NSSDC Master Catalog

Two Line Element Set (TLE):
1 33276U 08038C   24143.40266414  .00006889  00000-0  14228-2 0  9991
2 33276   2.1157  90.2693 7106308 182.4306 169.4273  2.50978861137477
Source of the keplerian elements: AFSPC